Regional Weather Roundup
Issued by NWS New Orleans/Baton Rouge, LA

Home | Current Version | Previous Version | Text Only | Print | Product List | Glossary On
Versions: 1 2 3 4 5 6 7 8 9 10 11 12 13 14 15 16 17 18 19 20 21 22 23 24 25 26 27 28 29 30 31 32 33 34 35 36 37 38 39 40 41 42 43 44 45 46 47 48 49 50
066
ASUS44 KLIX 050105
RWRLIX
NEW ORLEANS REGIONAL WEATHER ROUNDUP
NATIONAL WEATHER SERVICE NEW ORLEANS LA
700 PM CST WED MAR 04 2015

NOTE: "FAIR" INDICATES FEW OR NO CLOUDS BELOW 12,000 FEET WITH NO
      SIGNIFICANT WEATHER AND/OR OBSTRUCTIONS TO VISIBILITY.
      SKY/WX - SKY CONDITION AND SIGNIFICANT WEATHER.
      TMP - AIR TEMPERATURE.     DP    - DEWPOINT TEMPERATURE.
      RH  - RELATIVE HUMIDITY.   PRES  - PRESSURE.
      HI  - HEAT INDEX.          WCI   - WIND CHILL INDEX.

*  THESE STATIONS ARE NOT NWS OR FAA STATIONS AND ARE NOT UNDER
   NWS QUALITY CONTROL.

LAZ038-040-048-061>063-065>067-069-050200-
SOUTHEAST LOUISIANA

CITY           SKY/WX    TMP DP  RH WIND       PRES   REMARKS
N.O. AUDUBON     N/A     73  73  99 MISG        N/A
N.O. INTL ARPT PTCLDY    75  68  78 S9        29.90R
N.O. LAKEFRONT PTCLDY    77  67  71 S14       29.91R
SLIDELL        PTCLDY    72  69  90 S5        29.90R
BATON ROUGE    CLOUDY    76  67  73 S12       29.87R
BOOTHVILLE     MOCLDY    72  70  93 S8        29.94R
BELLE CHASSE   MOCLDY    74  69  85 S7        29.91R
BOGALUSA*        N/A     77  65  66 S9        29.90S
GALLIANO*      MOCLDY    76  71  85 S13G18    29.92R
NEW ROADS*     CLOUDY    75  67  77 S6        29.87R
GONZALES*      CLOUDY    75  70  83 S7        29.88S
HAMMOND*       MOCLDY    75  64  69 S7        29.90S
HOUMA*         MOCLDY    73  70  88 S7        29.90S
PORT FOURCHON* MOCLDY    73  70  88 S6        29.95S FOG

$$

MSZ070-080>082-050200-
SOUTHERN MISSISSIPPI

CITY           SKY/WX    TMP DP  RH WIND       PRES   REMARKS
MCCOMB         MOCLDY    72  65  78 S5        29.88R
GULFPORT       CLOUDY    68  67  96 S6        29.92S FOG
BILOXI         CLOUDY    67  67 100 S6        29.92S
PASCAGOULA     CLOUDY    72  69  90 S7        29.93S
STENNIS ARPT*  PTCLDY    70  64  83 S7        29.91S

$$

COASTAL OBSERVATIONS
LAKE AND NEARSHORE STATIONS

STATION/POSITION TIME  TEMP    WIND        PRES    WAVE
                       AIR SEA DIR/SP/G            HT/PER
                 (UTC) (F)     (DEG/KT/KT) (MB)    (FT/S)
PASCAGOULA       0100   69     160/ 12/ 17 1013.1
WAVELAND YACHT   0100   67 59  170/ 10/ 12 1012.8
GRAND ISLE       0100   71 66  170/  6/  8 1013.8
SOUTHWEST PASS   0100   68 47  170/ 11/ 13 1013.6
NEW CANAL        0100   75     200/  8/ 13 1013.0
SHELL BEACH      0100   73 63  160/  6/  7 1013.0

OFFSHORE STATIONS

STATION/POSITION TIME  TEMP    WIND        PRES    WAVE
                       AIR SEA DIR/SP/G            HT/PER
                 (UTC) (F)     (DEG/KT/KT) (MB)    (FT/S)
64 S DAUPHIN ISL 0017   73 72  160/ 12/ 12 1014.2    4/ 7

$$




USA.gov is the U.S. government's official web portal to all federal, state and local government web resources and services.